星链-34382 (STARLINK-34382)

导读 | 豆包AI

STARLINK-34382是美国于2025年6月28日发射的Starlink星座卫星,Starlink作为太空探索技术公司(SpaceX)打造的低轨卫星互联网星座,通过大规模卫星组网,为全球多地提供高速宽带互联网服务,尤其覆盖偏远与通信基础设施匮乏区域,该卫星是星座扩容、提升服务覆盖与容量的重要节点。

Basic Information
目录编号:
64667
目录名称:
STARLINK-34382
国际标识:
2025-139D
轨道中心:
EARTH
卫星名称:
星链-34382
卫星全名:
星链-34382 (STARLINK-34382)
卫星状态:
在轨 (已飞行259 天)
发射日期:
2025-06-28 UTC
国别 :
美国 (US)
星等 :
--
Orbit Information
数据来源 国际轨道数据 AOE轨道数据
星历时间 2026-03-14T03:53:38+0800
19小时前
查看轨道信息
2026-03-14T01:00:00+0800
22小时前
查看轨道信息
半长轴 6853.342km 6853.337km
偏心率 0.0002949 0.0001214
轨道倾角 53.160° 53.159°
近地点辐角 107.581° 82.861°
升交点赤经 108.108° 108.671°
平近点角 252.551° 332.680°
近地点 473.183km 474.368km
远地点 477.227km 476.032km
周期 94.105分钟 94.105分钟
每日圈数 15.302034 15.302051
Detailed Information
固有亮度:
5
最大亮度:
2.5
卫星平台:
Starlink V1.0
覆盖范围:
全球
运营商:
太空探索技术公司
运营商所在国:
美国
制造商(研发单位):
太空探索技术公司
制造商所在国:
美国
使用方式:
暂无
Satellite Introduction
Starlink 计划是 SpaceX 推出的全球卫星互联网项目,通过发射低轨道卫星,为全球尤其是偏远地区提供高速、低延迟的互联网服务。自 2019 年起,Starlink 已部署数千颗卫星,旨在缩小全球数字鸿沟,推动互联网普及。该项目还为军事、航空等行业提供通信支持,带来广泛经济效益。
2D Orbit Map
3D Orbit Map
Orbit Altitude Analysis Chart
Orbit Inclination Analysis Chart
Orbit Comprehensive Analysis Chart
View Comprehensive Chart